Location: Detroit
(42.3310°N, 83.0460°W)
Time: 05:26:48
(UTC-05:00)

Vanguard 2 Rocket - Visible Passes

Search period start: 03 March 2024 00:00
Search period end: 13 March 2024 01:00
Orbit: 555 x 3309 km, 32.9° (Epoch: 02 March)

Date Brightness Start Highest point End Pass type
(mag) Time Alt. Az. Time Alt. Az. Time Alt. Az.
03 Mar 10.6 18:52:27 10° W 19:02:51 28° SSW 19:16:58 10° SSE visible
04 Mar 11.1 20:08:03 10° WSW 20:15:03 14° SW 20:23:07 10° S visible
05 Mar 10.8 19:03:28 10° WSW 19:12:00 20° SSW 19:22:55 10° S visible
07 Mar 11.1 19:16:45 10° SW 19:21:14 12° SW 19:26:19 10° SSW visible
